514  
ASUS42 KILM 161614  
RWRILM  
RWRILM  
REGIONAL HOURLY WEATHER ROUNDUP  
NATIONAL WEATHER SERVICE WILMINGTON NC  
1200 PM EDT TUE JUL 16 2019  
 
NOTE: "FAIR" INDICATES FEW OR NO CLOUDS BELOW 12,000 FEET WITH NO  
SIGNIFICANT WEATHER AND/OR S TO VISIBILITY
.  
   
..............WFO WILMINGTON COUNTY WARNING AREA............
 
 
   
.....COASTAL NC AND SC COUNTIES...
 
 
 
CITY SKY/WX TMP DP RH WIND PRES REMARKS
 
WILMINGTON PTSUNNY 91 76 61 VRB3 30.11F HX 103  
N MYRTLE BEACH FAIR 90 77 65 S6 30.12S HX 103  
MYRTLE BEACH FAIR 89 80 74 S8 30.13S HX 106  
   
.....INLAND NC AND SC COUNTIES....
 
 
 
CITY SKY/WX TMP DP RH WIND PRES REMARKS
 
LUMBERTON NOT AVBL  
ELIZABETHTOWN FAIR 93 73 51 S6 30.12S HX 102  
WHITEVILLE FAIR 92 73 53 SW6 30.12S HX 100  
FLORENCE FAIR 95 74 50 VRB3 30.13R HX 105  
DARLINGTON N/A 91 75 59 VRB3 30.13S HX 101  
KINGSTREE FAIR 91 73 55 S5 30.13S HX 100  
HARTSVILLE FAIR 91 72 52 W5 30.13S HX 98  
BENNETTSVILLE FAIR 93 73 52 W5 30.12S HX 102  
CONWAY FAIR 90 73 58 CALM 30.13S HAZE HX 98  
GEORGETOWN FAIR 90 72 55 CALM 30.14S HX 96  
MARION FAIR 91 73 55 CALM 30.13S HX 100  
   
...................REST OF NORTH CAROLINA...................
 
 
   
........EASTERN NC......
 
 
 
CITY SKY/WX TMP DP RH WIND PRES REMARKS
 
CAPE HATTERAS FAIR 90 78 68 S6 30.13R HX 104  
JACKSONVILLE FAIR 94 76 55 SW7 30.12S HX 106  
MOREHEAD CITY FAIR 88 78 72 S9 30.13R HX 101  
KENANSVILLE FAIR 91 75 59 SW3 30.12S HX 102  
NEW BERN FAIR 92 75 57 SW8 30.13R HX 103  
ELIZABETH CITY FAIR 91 76 61 S5 30.11R HX 103  
   
........CENTRAL NC......
 
 
 
CITY SKY/WX TMP DP RH WIND PRES REMARKS
 
RALEIGH DURHAM PTSUNNY 93 69 45 W5 30.12S HX 98  
ROCKY MOUNT FAIR 95 71 45 SW8 30.11S HX 102  
ROANOKE RAPIDS NOT AVBL  
FAYETTEVILLE FAIR 95 73 48 SW12 30.11S HX 104  
HOFFMAN FAIR 94 69 42 W7 30.11F HX 99  
   
........WESTERN NC......
 
 
 
CITY SKY/WX TMP DP RH WIND PRES REMARKS
 
CHARLOTTE PTSUNNY 92 70 48 NW5 30.16S HX 97  
GREENSBORO PTSUNNY 89 71 55 SW7 30.15S HX 95  
HICKORY NOT AVBL  
BOONE NOT AVBL  
ASHEVILLE NOT AVBL  
   
....................REST OF SOUTH CAROLINA..................
 
 
   
........EASTERN SC......
 
 
 
CITY SKY/WX TMP DP RH WIND PRES REMARKS
 
CHARLESTON FAIR 91 72 53 VRB5 30.12F HX 98  
BEAUFORT MCAS FAIR 95 76 53 VRB3 30.13S HX 108  
HILTON HEAD MOSUNNY 93 75 55 NE7 30.14S HX 104  
   
........CENTRAL SC......
 
 
 
CITY SKY/WX TMP DP RH WIND PRES REMARKS
 
COLUMBIA FAIR 92 72 51 CALM 30.13S HX 99  
ORANGEBURG FAIR 93 71 48 CALM 30.14S HX 100  
SUMTER SHAW FAIR 91 71 50 NW6 30.14S HX 97  
   
........WESTERN SC......
 
 
 
CITY SKY/WX TMP DP RH WIND PRES REMARKS
 
GREENVILLE NOT AVBL  
ROCK HILL FAIR 89 71 55 NW7 30.16S HX 95  
ANDERSON FAIR 90 68 48 SW8 30.17S HX 94  
CLEMSON NOT AVBL  
GREENWOOD FAIR 91 70 49 SW9 30.17F HX 96  
 
   
..................COASTAL AND OFFSHORE REPORTS...............
 
 
   
...............LOCAL PIERS AND NC RESERVE.............
 
 
 
STATION/POSITION TIME SKY/WX TEMP WIND PRES VSBY
 
AIR SEA DIR/SP/G  
(UTC) (F) (DEG/KT/KT) (MB) (MI)  
JOHNY MRCER PIER 1524 85 82 160/ 7/ 8 1019.7  
NC RESRV MASNBRO NOT AVBL  
OCEAN CREST PIER NOT AVBL  
SPRINGMAID PIER 1524 84 N/A  
 
   
...............COASTAL AND OFFSHORE BUOYS.............
 
 
 
STATION/POSITION TIME SKY/WX TEMP WIND PRES VSBY
 
AIR SEA DIR/SP/G  
(UTC) (F) (DEG/KT/KT) (MB) (MI)  
DIMNDSHOAL 41025 1550 84 84 210/ 6/ 8 1020.0R  
WVE H/P(F/S)= 1/10 SWL H/P/D(F/S/D)= 2/100/10  
 
CAPE LOOKOUT 1600 86 180/ 8/ 10 1019.9R  
ONSLOW BAY 41036 NOT AVBL  
ONSLOW BAY 41064 1508 84 85 220/ 4/ 6 1019.8R  
ONSLOW BAY 41159 1600 85 N/A  
WVE H/P(F/S)= 1/10  
 
MASNBO INL 41110 1540 83 N/A  
WVE H/P(F/S)= 1/ 8  
 
WILM HARBR 41108 1600 85 N/A  
WVE H/P(F/S)= 1/ 8  
 
27SE WRITB 41037 1508 82 84 CALM 1020.4R  
FRYING PAN 41013 1600 84 85 200/ 6/ 6 1020.3  
SUNST NRSH 41024 1508 83 86 210/ 6/ 10 1020.1R  
CAPRS NRSH 41029 1508 87 86 230/ 2/ 6 1020.6R  
EDISTO 41004 1600 87 85 CALM / 2 1020.5  
 
   
.........OFFSHORE BUOYS BEYOND 100 NM OFFSHORE........
 
   
....IN A TRIANGLE---HAT TO BERMUDA TO BAHAMAS TO HAT..
 
 
 
 
STATION/POSITION TIME SKY/WX TEMP WIND PRES VSBY
 
AIR SEA DIR/SP/G  
(UTC) (F) (DEG/KT/KT) (MB) (MI)  
150E HAT 41001 1600 83 83 250/ 8/ 8 1021.1  
W BERMUDA 41048 1600 83 83 230/ 8/ 10 1021.7  
ATLANTIC S 41049 1600 85 70/ 4/ 6 1023.2  
E BAHAMAS 41046 1600 84 85 110/ 6/ 8 1021.6  
NE BAHAMAS 41047 1600 84 86 160/ 4/ 6 1022.4  
120E CANVRL41010 1550 85 85 160/ 2/ 4 N/A  
WVE H/P(F/S)= 2/10 SWL H/P/D(F/S/D)= 2/110/10  
 
END  
 
 
CLICK HERE TO GO TO PREVIOUS BULLETINS.

The Nexlab NC Page
The Nexlab SC Page Main Text Page